Regional Weather Roundup
Issued by NWS

Home | Current Version | Previous Version | Graphics & Text | Print | Product List | Glossary On
Versions: 1 2 3 4 5 6 7 8 9 10 11 12 13 14 15 16 17 18 19 20 21 22 23 24 25 26 27 28 29 30 31 32 33 34 35 36 37 38 39 40 41 42 43 44 45 46 47 48 49 50
000
ASUS43 KLSX 010159
RWRMO

WEATHER SUMMARY FOR MISSOURI
NATIONAL WEATHER SERVICE SPRINGFIELD MO
900 PM CDT FRI JUL 31 2015

NOTE: "FAIR" INDICATES FEW OR NO CLOUDS BELOW 12,000 FEET WITH NO
       SIGNIFICANT WEATHER AND/OR OBSTRUCTIONS TO VISIBILITY.
       CURRENT SKY AND/OR WEATHER CONDITIONS ARE NOT AVAILABLE FOR
       CHILLICOTHE AND FARMINGTON.

MOZ001>031-035>038-043-044-053-054-010300-
...NORTHERN AND WESTERN MISSOURI...

CITY           SKY/WX    TMP DP  RH WIND       PRES   REMARKS
KANSAS CTY INT PTCLDY    81  68  64 CALM      30.06R
KANSAS C DTWN  CLEAR     85  68  56 CALM      30.03S
LEE`S SUMMIT   CLEAR     83  65  54 W3        30.06R
ST JOSEPH        N/A     82  75  79 S5        30.04S
CHILLICOTHE      N/A     79  75  87 CALM      30.04R
KIRKSVILLE     CLOUDY    78  71  79 SW3       30.04S

$$
MOZ066>068-077>081-088>096-101>105-010300-
...SOUTHWEST MISSOURI...

CITY           SKY/WX    TMP DP  RH WIND       PRES   REMARKS
SPRINGFIELD    CLEAR     76  62  62 SW5       30.09R
JOPLIN         CLEAR     76  63  64 S7        30.08R

$$
MOZ032>034-039>042-045>050-055>058-069>072-010300-
...CENTRAL MISSOURI...

CITY           SKY/WX    TMP DP  RH WIND       PRES   REMARKS
COLUMBIA       CLEAR     77  68  73 S3        30.04S
JEFFERSON CITY CLEAR     78  66  66 CALM      30.03R
ROLLA          CLEAR     75  63  66 CALM      30.05S
SEDALIA        CLEAR     82  61  48 SW5       30.06S
WARRENSBURG    CLEAR     81  64  57 S3        30.04S
OSAGE BEACH    CLEAR     77  70  78 CALM      30.06S

$$
MOZ051-052-059>065-010300-
...EAST CENTRAL MISSOURI...

CITY           SKY/WX    TMP DP  RH WIND       PRES   REMARKS
ST LOUIS INTL  PTCLDY    83  62  49 CALM      30.02S
SPIRIT OF STL  PTCLDY    76  70  82 CALM      30.01R
ST CHARLES     CLEAR     78  71  79 N3        30.01R

$$
MOZ072>076-082>087-097>100-106>115-010300-
...SOUTH CENTRAL AND SOUTHEAST MISSOURI...

CITY           SKY/WX    TMP DP  RH WIND       PRES   REMARKS
CAPE GIRARDEAU CLEAR     76  71  85 S3        30.02R
FARMINGTON     CLEAR     75  64  69 W5        30.09S
POPLAR BLUFF   CLEAR     78  72  81 CALM      30.02R
WEST PLAINS    CLEAR     74  66  76 W3        30.10R

$$


USA.gov is the U.S. government's official web portal to all federal, state and local government web resources and services.